contact:dominique.lefevre@mio.osupytheas.fr, maurice.libes@osupytheas.fr, didier.mallarino@osupytheas.fr
Project:EMSO http://www.emso-fr.org/EMSO-France
Depth: 2436.0 m
Title:EMSO Ligure Ouest : Data MII capteur MICROCAT
DateTime_Computer,Latitude,Longitude,Temperature,Conductivity,Pressure,DateTime_Instrument
DateTime_Computer,Latitude,Longitude,degC,S m-1,dbar,DateTime_Instrument
2023-03-05T00:01:00Z,42.805,6.029,13.3098,4.60119,2470.577,2023-3-05T02:03:34Z
2023-03-05T00:04:03Z,42.805,6.029,13.3082,4.60102,2470.553,2023-3-05T02:06:37Z
2023-03-05T00:07:06Z,42.805,6.029,13.3094,4.60102,2470.567,2023-3-05T02:09:40Z
2023-03-05T00:10:09Z,42.805,6.029,13.3113,4.60107,2470.577,2023-3-05T02:12:43Z
2023-03-05T00:13:12Z,42.805,6.029,13.3113,4.60112,2470.6,2023-3-05T02:15:46Z
2023-03-05T00:16:15Z,42.805,6.029,13.3108,4.60119,2470.567,2023-3-05T02:18:49Z
2023-03-05T00:19:18Z,42.805,6.029,13.3116,4.60119,2470.6,2023-3-05T02:21:52Z
2023-03-05T00:22:21Z,42.805,6.029,13.3108,4.60123,2470.6,2023-3-05T02:24:55Z
2023-03-05T00:25:24Z,42.805,6.029,13.3100,4.60125,2470.591,2023-3-05T02:27:58Z
2023-03-05T00:28:27Z,42.805,6.029,13.3101,4.60127,2470.544,2023-3-05T02:31:01Z
2023-03-05T00:31:31Z,42.805,6.029,13.3104,4.60147,2470.6,2023-3-05T02:34:04Z
2023-03-05T00:34:34Z,42.805,6.029,13.3111,4.60138,2470.6,2023-3-05T02:37:07Z
2023-03-05T00:37:37Z,42.805,6.029,13.3107,4.60157,2470.6,2023-3-05T02:40:10Z
2023-03-05T00:40:40Z,42.805,6.029,13.3115,4.60135,2470.577,2023-3-05T02:43:14Z
2023-03-05T00:43:43Z,42.805,6.029,13.3109,4.60137,2470.577,2023-3-05T02:46:17Z
2023-03-05T00:46:46Z,42.805,6.029,13.3093,4.60177,2470.614,2023-3-05T02:49:20Z
2023-03-05T00:49:49Z,42.805,6.029,13.3040,4.60184,2470.637,2023-3-05T02:52:23Z
2023-03-05T00:52:52Z,42.805,6.029,13.3040,4.60227,2470.614,2023-3-05T02:55:26Z
2023-03-05T00:55:55Z,42.805,6.029,13.3040,4.60223,2470.567,2023-3-05T02:58:29Z
2023-03-05T00:58:58Z,42.805,6.029,13.3036,4.60185,2470.577,2023-3-05T03:01:32Z
2023-03-05T01:02:01Z,42.805,6.029,13.3033,4.60144,2470.591,2023-3-05T03:04:35Z
2023-03-05T01:05:04Z,42.805,6.029,13.3045,4.60111,2470.591,2023-3-05T03:07:38Z
2023-03-05T01:08:07Z,42.805,6.029,13.3035,4.60144,2470.591,2023-3-05T03:10:41Z
2023-03-05T01:11:11Z,42.805,6.029,13.3042,4.60128,2470.577,2023-3-05T03:13:44Z
2023-03-05T01:14:14Z,42.805,6.029,13.3061,4.60120,2470.614,2023-3-05T03:16:47Z
2023-03-05T01:17:17Z,42.805,6.029,13.3036,4.60092,2470.591,2023-3-05T03:19:50Z
2023-03-05T01:20:20Z,42.805,6.029,13.3031,4.60088,2470.577,2023-3-05T03:22:53Z
2023-03-05T01:23:23Z,42.805,6.029,13.3036,4.60084,2470.6,2023-3-05T03:25:57Z
2023-03-05T01:26:26Z,42.805,6.029,13.3027,4.60087,2470.6,2023-3-05T03:29:00Z
2023-03-05T01:29:29Z,42.805,6.029,13.3024,4.60087,2470.614,2023-3-05T03:32:03Z
2023-03-05T01:32:32Z,42.805,6.029,13.3022,4.60085,2470.637,2023-3-05T03:35:06Z
2023-03-05T01:35:35Z,42.805,6.029,13.3028,4.60083,2470.6,2023-3-05T03:38:09Z
2023-03-05T01:38:38Z,42.805,6.029,13.3025,4.60089,2470.6,2023-3-05T03:41:12Z
2023-03-05T01:41:41Z,42.805,6.029,13.3024,4.60089,2470.6,2023-3-05T03:44:15Z
2023-03-05T01:44:44Z,42.805,6.029,13.3024,4.60085,2470.628,2023-3-05T03:47:18Z
2023-03-05T01:47:47Z,42.805,6.029,13.3023,4.60086,2470.6,2023-3-05T03:50:21Z
2023-03-05T01:50:50Z,42.805,6.029,13.3023,4.60084,2470.591,2023-3-05T03:53:24Z
2023-03-05T01:53:54Z,42.805,6.029,13.3022,4.60084,2470.6,2023-3-05T03:56:27Z
2023-03-05T01:56:57Z,42.805,6.029,13.3024,4.60086,2470.614,2023-3-05T03:59:30Z
2023-03-05T02:00:00Z,42.805,6.029,13.3024,4.60085,2470.637,2023-3-05T04:02:34Z
2023-03-05T02:03:03Z,42.805,6.029,13.3023,4.60085,2470.637,2023-3-05T04:05:37Z
2023-03-05T02:06:06Z,42.805,6.029,13.3021,4.60086,2470.6,2023-3-05T04:08:40Z
2023-03-05T02:09:09Z,42.805,6.029,13.3023,4.60086,2470.661,2023-3-05T04:11:43Z
2023-03-05T02:12:12Z,42.805,6.029,13.3021,4.60085,2470.646,2023-3-05T04:14:46Z
2023-03-05T02:15:15Z,42.805,6.029,13.3022,4.60094,2470.637,2023-3-05T04:17:49Z
2023-03-05T02:18:18Z,42.805,6.029,13.3023,4.60087,2470.624,2023-3-05T04:20:52Z
2023-03-05T02:21:21Z,42.805,6.029,13.3024,4.60089,2470.614,2023-3-05T04:23:55Z
2023-03-05T02:24:24Z,42.805,6.029,13.3021,4.60087,2470.637,2023-3-05T04:26:58Z
2023-03-05T02:27:27Z,42.805,6.029,13.3021,4.60086,2470.661,2023-3-05T04:30:01Z
2023-03-05T02:30:30Z,42.805,6.029,13.3020,4.60088,2470.646,2023-3-05T04:33:04Z
2023-03-05T02:33:33Z,42.805,6.029,13.3022,4.60090,2470.624,2023-3-05T04:36:07Z
2023-03-05T02:36:37Z,42.805,6.029,13.3022,4.60091,2470.637,2023-3-05T04:39:10Z
2023-03-05T02:39:40Z,42.805,6.029,13.3023,4.60097,2470.646,2023-3-05T04:42:13Z
2023-03-05T02:42:43Z,42.805,6.029,13.3020,4.60098,2470.624,2023-3-05T04:45:17Z
2023-03-05T02:45:46Z,42.805,6.029,13.3019,4.60088,2470.646,2023-3-05T04:48:20Z
2023-03-05T02:48:49Z,42.805,6.029,13.3021,4.60093,2470.614,2023-3-05T04:51:23Z
2023-03-05T02:51:52Z,42.805,6.029,13.3022,4.60087,2470.624,2023-3-05T04:54:26Z
2023-03-05T02:54:55Z,42.805,6.029,13.3022,4.60086,2470.67,2023-3-05T04:57:29Z
2023-03-05T02:57:58Z,42.805,6.029,13.3024,4.60092,2470.646,2023-3-05T05:00:32Z
2023-03-05T03:01:01Z,42.805,6.029,13.3025,4.60085,2470.661,2023-3-05T05:03:35Z
2023-03-05T03:04:04Z,42.805,6.029,13.3020,4.60090,2470.624,2023-3-05T05:06:38Z
2023-03-05T03:07:07Z,42.805,6.029,13.3024,4.60082,2470.646,2023-3-05T05:09:41Z
2023-03-05T03:10:10Z,42.805,6.029,13.3023,4.60102,2470.646,2023-3-05T05:12:44Z
2023-03-05T03:13:13Z,42.805,6.029,13.3037,4.60126,2470.646,2023-3-05T05:15:47Z
2023-03-05T03:16:16Z,42.805,6.029,13.3068,4.60103,2470.646,2023-3-05T05:18:50Z
2023-03-05T03:19:20Z,42.805,6.029,13.3063,4.60131,2470.67,2023-3-05T05:21:53Z
2023-03-05T03:22:23Z,42.805,6.029,13.3061,4.60134,2470.646,2023-3-05T05:24:56Z
2023-03-05T03:25:26Z,42.805,6.029,13.3053,4.60113,2470.684,2023-3-05T05:28:00Z
2023-03-05T03:28:29Z,42.805,6.029,13.3070,4.60110,2470.661,2023-3-05T05:31:03Z
2023-03-05T03:31:32Z,42.805,6.029,13.3067,4.60104,2470.684,2023-3-05T05:34:06Z
2023-03-05T03:34:35Z,42.805,6.029,13.3073,4.60122,2470.717,2023-3-05T05:37:09Z
2023-03-05T03:37:38Z,42.805,6.029,13.3069,4.60097,2470.693,2023-3-05T05:40:12Z
2023-03-05T03:40:41Z,42.805,6.029,13.3075,4.60117,2470.67,2023-3-05T05:43:15Z
2023-03-05T03:43:44Z,42.805,6.029,13.3084,4.60139,2470.717,2023-3-05T05:46:18Z
2023-03-05T03:46:47Z,42.805,6.029,13.3050,4.60102,2470.684,2023-3-05T05:49:21Z
2023-03-05T03:49:50Z,42.805,6.029,13.3031,4.60092,2470.73,2023-3-05T05:52:24Z
2023-03-05T03:52:53Z,42.805,6.029,13.3031,4.60103,2470.707,2023-3-05T05:55:27Z
2023-03-05T03:55:56Z,42.805,6.029,13.3037,4.60107,2470.684,2023-3-05T05:58:30Z
2023-03-05T03:59:00Z,42.805,6.029,13.3049,4.60099,2470.717,2023-3-05T06:01:33Z
2023-03-05T04:02:03Z,42.805,6.029,13.3069,4.60124,2470.717,2023-3-05T06:04:36Z
2023-03-05T04:05:06Z,42.805,6.029,13.3080,4.60123,2470.717,2023-3-05T06:07:40Z
2023-03-05T04:08:09Z,42.805,6.029,13.3074,4.60114,2470.693,2023-3-05T06:10:43Z
2023-03-05T04:11:12Z,42.805,6.029,13.3061,4.60114,2470.73,2023-3-05T06:13:46Z
2023-03-05T04:14:15Z,42.805,6.029,13.3054,4.60150,2470.73,2023-3-05T06:16:49Z
2023-03-05T04:17:18Z,42.805,6.029,13.3062,4.60168,2470.717,2023-3-05T06:19:52Z
2023-03-05T04:20:21Z,42.805,6.029,13.3066,4.60135,2470.707,2023-3-05T06:22:55Z
2023-03-05T04:23:24Z,42.805,6.029,13.3070,4.60130,2470.73,2023-3-05T06:25:58Z
2023-03-05T04:26:27Z,42.805,6.029,13.3065,4.60147,2470.717,2023-3-05T06:29:01Z
2023-03-05T04:29:30Z,42.805,6.029,13.3073,4.60102,2470.717,2023-3-05T06:32:04Z
2023-03-05T04:32:33Z,42.805,6.029,13.3057,4.60149,2470.754,2023-3-05T06:35:07Z
2023-03-05T04:35:36Z,42.805,6.029,13.3048,4.60151,2470.73,2023-3-05T06:38:10Z
2023-03-05T04:38:40Z,42.805,6.029,13.3056,4.60127,2470.717,2023-3-05T06:41:13Z
2023-03-05T04:41:43Z,42.805,6.029,13.3079,4.60176,2470.74,2023-3-05T06:44:16Z
2023-03-05T04:44:46Z,42.805,6.029,13.3030,4.60112,2470.763,2023-3-05T06:47:20Z
2023-03-05T04:47:49Z,42.805,6.029,13.3076,4.60132,2470.73,2023-3-05T06:50:23Z
2023-03-05T04:50:52Z,42.805,6.029,13.3051,4.60091,2470.74,2023-3-05T06:53:26Z
2023-03-05T04:53:55Z,42.805,6.029,13.3056,4.60114,2470.754,2023-3-05T06:56:29Z
2023-03-05T04:56:58Z,42.805,6.029,13.3047,4.60115,2470.74,2023-3-05T06:59:32Z
2023-03-05T05:00:01Z,42.805,6.029,13.3071,4.60109,2470.777,2023-3-05T07:02:35Z
2023-03-05T05:03:04Z,42.805,6.029,13.3054,4.60094,2470.74,2023-3-05T07:05:38Z
2023-03-05T05:06:07Z,42.805,6.029,13.3026,4.60088,2470.777,2023-3-05T07:08:41Z
2023-03-05T05:09:10Z,42.805,6.029,13.3030,4.60098,2470.754,2023-3-05T07:11:44Z
2023-03-05T05:12:13Z,42.805,6.029,13.3030,4.60105,2470.717,2023-3-05T07:14:47Z
2023-03-05T05:15:16Z,42.805,6.029,13.3051,4.60110,2470.763,2023-3-05T07:17:50Z
2023-03-05T05:18:19Z,42.805,6.029,13.3058,4.60130,2470.74,2023-3-05T07:20:53Z
2023-03-05T05:21:23Z,42.805,6.029,13.3057,4.60137,2470.763,2023-3-05T07:23:56Z
2023-03-05T05:24:26Z,42.805,6.029,13.3057,4.60137,2470.763,2023-3-05T07:27:00Z
2023-03-05T05:27:29Z,42.805,6.029,13.3053,4.60141,2470.787,2023-3-05T07:30:03Z
2023-03-05T05:30:32Z,42.805,6.029,13.3063,4.60140,2470.74,2023-3-05T07:33:06Z
2023-03-05T05:33:35Z,42.805,6.029,13.3061,4.60155,2470.8,2023-3-05T07:36:09Z
2023-03-05T05:36:38Z,42.805,6.029,13.3067,4.60121,2470.81,2023-3-05T07:39:12Z
2023-03-05T05:39:41Z,42.805,6.029,13.3061,4.60122,2470.763,2023-3-05T07:42:15Z
2023-03-05T05:42:44Z,42.805,6.029,13.3062,4.60137,2470.787,2023-3-05T07:45:18Z
2023-03-05T05:45:47Z,42.805,6.029,13.3054,4.60170,2470.777,2023-3-05T07:48:21Z
2023-03-05T05:48:50Z,42.805,6.029,13.3063,4.60163,2470.824,2023-3-05T07:51:24Z
2023-03-05T05:51:53Z,42.805,6.029,13.3047,4.60168,2470.787,2023-3-05T07:54:27Z
2023-03-05T05:54:56Z,42.805,6.029,13.3065,4.60147,2470.777,2023-3-05T07:57:30Z
2023-03-05T05:57:59Z,42.805,6.029,13.3066,4.60135,2470.787,2023-3-05T08:00:33Z
2023-03-05T06:01:03Z,42.805,6.029,13.3072,4.60109,2470.8,2023-3-05T08:03:36Z
2023-03-05T06:04:06Z,42.805,6.029,13.3052,4.60140,2470.777,2023-3-05T08:06:39Z
2023-03-05T06:07:09Z,42.805,6.029,13.3054,4.60174,2470.787,2023-3-05T08:09:43Z
2023-03-05T06:10:12Z,42.805,6.029,13.3049,4.60148,2470.8,2023-3-05T08:12:46Z
2023-03-05T06:13:15Z,42.805,6.029,13.3048,4.60179,2470.787,2023-3-05T08:15:49Z
2023-03-05T06:16:18Z,42.805,6.029,13.3048,4.60166,2470.8,2023-3-05T08:18:52Z
2023-03-05T06:19:21Z,42.805,6.029,13.3048,4.60167,2470.787,2023-3-05T08:21:55Z
2023-03-05T06:22:24Z,42.805,6.029,13.3042,4.60171,2470.787,2023-3-05T08:24:58Z
2023-03-05T06:25:27Z,42.805,6.029,13.3047,4.60167,2470.787,2023-3-05T08:28:01Z
2023-03-05T06:28:30Z,42.805,6.029,13.3048,4.60178,2470.8,2023-3-05T08:31:04Z
2023-03-05T06:31:33Z,42.805,6.029,13.3043,4.60170,2470.81,2023-3-05T08:34:07Z
2023-03-05T06:34:36Z,42.805,6.029,13.3038,4.60142,2470.861,2023-3-05T08:37:10Z
2023-03-05T06:37:39Z,42.805,6.029,13.3046,4.60160,2470.787,2023-3-05T08:40:13Z
2023-03-05T06:40:42Z,42.805,6.029,13.3051,4.60142,2470.824,2023-3-05T08:43:16Z
2023-03-05T06:43:46Z,42.805,6.029,13.3048,4.60170,2470.8,2023-3-05T08:46:19Z
2023-03-05T06:46:49Z,42.805,6.029,13.3054,4.60172,2470.81,2023-3-05T08:49:23Z
2023-03-05T06:49:52Z,42.805,6.029,13.3048,4.60188,2470.763,2023-3-05T08:52:26Z
2023-03-05T06:52:55Z,42.805,6.029,13.3050,4.60169,2470.787,2023-3-05T08:55:29Z
2023-03-05T06:55:58Z,42.805,6.029,13.3048,4.60180,2470.787,2023-3-05T08:58:32Z
2023-03-05T06:59:01Z,42.805,6.029,13.3039,4.60162,2470.763,2023-3-05T09:01:35Z
2023-03-05T07:02:04Z,42.805,6.029,13.3053,4.60143,2470.763,2023-3-05T09:04:38Z
2023-03-05T07:05:07Z,42.805,6.029,13.3051,4.60152,2470.8,2023-3-05T09:07:41Z
2023-03-05T07:08:10Z,42.805,6.029,13.3048,4.60154,2470.787,2023-3-05T09:10:44Z
2023-03-05T07:11:13Z,42.805,6.029,13.3053,4.60149,2470.81,2023-3-05T09:13:47Z
2023-03-05T07:14:16Z,42.805,6.029,13.3050,4.60180,2470.763,2023-3-05T09:16:50Z
2023-03-05T07:17:19Z,42.805,6.029,13.3066,4.60137,2470.8,2023-3-05T09:19:53Z
2023-03-05T07:20:22Z,42.805,6.029,13.3054,4.60160,2470.81,2023-3-05T09:22:56Z
2023-03-05T07:23:25Z,42.805,6.029,13.3054,4.60184,2470.787,2023-3-05T09:25:59Z
2023-03-05T07:26:29Z,42.805,6.029,13.3077,4.60163,2470.81,2023-3-05T09:29:02Z
2023-03-05T07:29:32Z,42.805,6.029,13.3056,4.60150,2470.777,2023-3-05T09:32:06Z
2023-03-05T07:32:35Z,42.805,6.029,13.3050,4.60150,2470.8,2023-3-05T09:35:09Z
2023-03-05T07:35:38Z,42.805,6.029,13.3060,4.60156,2470.791,2023-3-05T09:38:12Z
2023-03-05T07:38:41Z,42.805,6.029,13.3041,4.60174,2470.8,2023-3-05T09:41:15Z
2023-03-05T07:41:44Z,42.805,6.029,13.3052,4.60160,2470.777,2023-3-05T09:44:18Z
2023-03-05T07:44:47Z,42.805,6.029,13.3050,4.60152,2470.787,2023-3-05T09:47:21Z
2023-03-05T07:47:50Z,42.805,6.029,13.3050,4.60144,2470.8,2023-3-05T09:50:24Z
2023-03-05T07:50:53Z,42.805,6.029,13.3039,4.60140,2470.787,2023-3-05T09:53:27Z
2023-03-05T07:53:56Z,42.805,6.029,13.3048,4.60173,2470.787,2023-3-05T09:56:30Z
2023-03-05T07:56:59Z,42.805,6.029,13.3044,4.60167,2470.787,2023-3-05T09:59:33Z
2023-03-05T08:00:02Z,42.805,6.029,13.3045,4.60155,2470.777,2023-3-05T10:02:36Z
2023-03-05T08:03:05Z,42.805,6.029,13.3041,4.60142,2470.773,2023-3-05T10:05:39Z
2023-03-05T08:06:09Z,42.805,6.029,13.3039,4.60186,2470.763,2023-3-05T10:08:42Z
2023-03-05T08:09:12Z,42.805,6.029,13.3069,4.60131,2470.777,2023-3-05T10:11:46Z
2023-03-05T08:12:15Z,42.805,6.029,13.3044,4.60167,2470.787,2023-3-05T10:14:49Z
2023-03-05T08:15:18Z,42.805,6.029,13.3042,4.60150,2470.763,2023-3-05T10:17:52Z
2023-03-05T08:18:21Z,42.805,6.029,13.3047,4.60184,2470.777,2023-3-05T10:20:55Z
2023-03-05T08:21:24Z,42.805,6.029,13.3054,4.60175,2470.787,2023-3-05T10:23:58Z
2023-03-05T08:24:27Z,42.805,6.029,13.3044,4.60155,2470.763,2023-3-05T10:27:01Z
2023-03-05T08:27:30Z,42.805,6.029,13.3053,4.60190,2470.74,2023-3-05T10:30:04Z
2023-03-05T08:30:33Z,42.805,6.029,13.3049,4.60185,2470.787,2023-3-05T10:33:07Z
2023-03-05T08:33:36Z,42.805,6.029,13.3049,4.60165,2470.74,2023-3-05T10:36:10Z
2023-03-05T08:36:39Z,42.805,6.029,13.3040,4.60155,2470.75,2023-3-05T10:39:13Z
2023-03-05T08:39:42Z,42.805,6.029,13.3057,4.60179,2470.763,2023-3-05T10:42:16Z
2023-03-05T08:42:46Z,42.805,6.029,13.3049,4.60152,2470.8,2023-3-05T10:45:19Z
2023-03-05T08:45:49Z,42.805,6.029,13.3046,4.60140,2470.763,2023-3-05T10:48:23Z
2023-03-05T08:48:52Z,42.805,6.029,13.3067,4.60143,2470.763,2023-3-05T10:51:26Z
2023-03-05T08:51:55Z,42.805,6.029,13.3048,4.60195,2470.787,2023-3-05T10:54:29Z
2023-03-05T08:54:58Z,42.805,6.029,13.3056,4.60147,2470.787,2023-3-05T10:57:32Z
2023-03-05T08:58:01Z,42.805,6.029,13.3045,4.60177,2470.777,2023-3-05T11:00:35Z
2023-03-05T09:01:04Z,42.805,6.029,13.3049,4.60159,2470.787,2023-3-05T11:03:38Z
2023-03-05T09:04:07Z,42.805,6.029,13.3045,4.60158,2470.763,2023-3-05T11:06:41Z
2023-03-05T09:07:10Z,42.805,6.029,13.3063,4.60161,2470.717,2023-3-05T11:09:44Z
2023-03-05T09:10:13Z,42.805,6.029,13.3073,4.60155,2470.74,2023-3-05T11:12:47Z
2023-03-05T09:13:16Z,42.805,6.029,13.3066,4.60150,2470.726,2023-3-05T11:15:50Z
2023-03-05T09:16:19Z,42.805,6.029,13.3057,4.60198,2470.74,2023-3-05T11:18:53Z
2023-03-05T09:19:22Z,42.805,6.029,13.3048,4.60152,2470.754,2023-3-05T11:21:56Z
2023-03-05T09:22:26Z,42.805,6.029,13.3043,4.60181,2470.74,2023-3-05T11:24:59Z
2023-03-05T09:25:29Z,42.805,6.029,13.3048,4.60137,2470.763,2023-3-05T11:28:03Z
2023-03-05T09:28:32Z,42.805,6.029,13.3058,4.60179,2470.73,2023-3-05T11:31:06Z
2023-03-05T09:31:35Z,42.805,6.029,13.3067,4.60143,2470.74,2023-3-05T11:34:09Z
2023-03-05T09:34:38Z,42.805,6.029,13.3043,4.60144,2470.73,2023-3-05T11:37:12Z
2023-03-05T09:37:41Z,42.805,6.029,13.3052,4.60173,2470.763,2023-3-05T11:40:15Z
2023-03-05T09:40:44Z,42.805,6.029,13.3047,4.60155,2470.717,2023-3-05T11:43:18Z
2023-03-05T09:43:47Z,42.805,6.029,13.3047,4.60147,2470.74,2023-3-05T11:46:21Z
2023-03-05T09:46:50Z,42.805,6.029,13.3051,4.60166,2470.74,2023-3-05T11:49:24Z
2023-03-05T09:49:53Z,42.805,6.029,13.3059,4.60162,2470.73,2023-3-05T11:52:27Z
2023-03-05T09:52:56Z,42.805,6.029,13.3062,4.60147,2470.73,2023-3-05T11:55:30Z
2023-03-05T09:55:59Z,42.805,6.029,13.3056,4.60144,2470.717,2023-3-05T11:58:33Z
2023-03-05T09:59:02Z,42.805,6.029,13.3057,4.60147,2470.73,2023-3-05T12:01:36Z
2023-03-05T10:02:06Z,42.805,6.029,13.3067,4.60150,2470.693,2023-3-05T12:04:40Z
2023-03-05T10:05:09Z,42.805,6.029,13.3046,4.60155,2470.717,2023-3-05T12:07:43Z
2023-03-05T10:08:12Z,42.805,6.029,13.3058,4.60145,2470.754,2023-3-05T12:10:46Z
2023-03-05T10:11:15Z,42.805,6.029,13.3053,4.60135,2470.717,2023-3-05T12:13:49Z
2023-03-05T10:14:18Z,42.805,6.029,13.3046,4.60163,2470.693,2023-3-05T12:16:52Z
2023-03-05T10:17:21Z,42.805,6.029,13.3043,4.60155,2470.717,2023-3-05T12:19:55Z
2023-03-05T10:20:24Z,42.805,6.029,13.3043,4.60157,2470.707,2023-3-05T12:22:58Z
2023-03-05T10:23:27Z,42.805,6.029,13.3048,4.60134,2470.73,2023-3-05T12:26:01Z
2023-03-05T10:26:30Z,42.805,6.029,13.3045,4.60123,2470.693,2023-3-05T12:29:04Z
2023-03-05T10:29:33Z,42.805,6.029,13.3051,4.60132,2470.707,2023-3-05T12:32:07Z
2023-03-05T10:32:36Z,42.805,6.029,13.3044,4.60149,2470.73,2023-3-05T12:35:10Z
2023-03-05T10:35:39Z,42.805,6.029,13.3051,4.60142,2470.684,2023-3-05T12:38:13Z
2023-03-05T10:38:43Z,42.805,6.029,13.3041,4.60170,2470.679,2023-3-05T12:41:17Z
2023-03-05T10:41:46Z,42.805,6.029,13.3054,4.60178,2470.693,2023-3-05T12:44:20Z
2023-03-05T10:44:49Z,42.805,6.029,13.3049,4.60197,2470.67,2023-3-05T12:47:23Z
2023-03-05T10:47:52Z,42.805,6.029,13.3061,4.60161,2470.707,2023-3-05T12:50:26Z
2023-03-05T10:50:55Z,42.805,6.029,13.3051,4.60175,2470.707,2023-3-05T12:53:29Z
2023-03-05T10:53:58Z,42.805,6.029,13.3043,4.60190,2470.73,2023-3-05T12:56:32Z
2023-03-05T10:57:01Z,42.805,6.029,13.3048,4.60169,2470.684,2023-3-05T12:59:35Z
2023-03-05T11:00:04Z,42.805,6.029,13.3060,4.60137,2470.67,2023-3-05T13:02:38Z
2023-03-05T11:03:07Z,42.805,6.029,13.3065,4.60137,2470.693,2023-3-05T13:05:41Z
2023-03-05T11:06:10Z,42.805,6.029,13.3068,4.60122,2470.661,2023-3-05T13:08:44Z
2023-03-05T11:09:13Z,42.805,6.029,13.3075,4.60144,2470.684,2023-3-05T13:11:47Z
2023-03-05T11:12:16Z,42.805,6.029,13.3085,4.60137,2470.661,2023-3-05T13:14:50Z
2023-03-05T11:15:19Z,42.805,6.029,13.3071,4.60160,2470.684,2023-3-05T13:17:54Z
2023-03-05T11:18:23Z,42.805,6.029,13.3071,4.60162,2470.707,2023-3-05T13:20:57Z
2023-03-05T11:21:26Z,42.805,6.029,13.3055,4.60165,2470.624,2023-3-05T13:24:00Z
2023-03-05T11:24:29Z,42.805,6.029,13.3060,4.60135,2470.67,2023-3-05T13:27:03Z
2023-03-05T11:27:32Z,42.805,6.029,13.3076,4.60125,2470.624,2023-3-05T13:30:06Z
2023-03-05T11:30:35Z,42.805,6.029,13.3084,4.60140,2470.646,2023-3-05T13:33:09Z
2023-03-05T11:33:38Z,42.805,6.029,13.3070,4.60156,2470.646,2023-3-05T13:36:12Z
2023-03-05T11:36:41Z,42.805,6.029,13.3056,4.60175,2470.661,2023-3-05T13:39:15Z
2023-03-05T11:39:44Z,42.805,6.029,13.3070,4.60142,2470.67,2023-3-05T13:42:18Z
2023-03-05T11:42:47Z,42.805,6.029,13.3061,4.60144,2470.67,2023-3-05T13:45:21Z
2023-03-05T11:45:50Z,42.805,6.029,13.3058,4.60175,2470.684,2023-3-05T13:48:24Z
2023-03-05T11:48:53Z,42.805,6.029,13.3048,4.60167,2470.637,2023-3-05T13:51:27Z
2023-03-05T11:51:56Z,42.805,6.029,13.3036,4.60158,2470.624,2023-3-05T13:54:30Z
2023-03-05T11:54:59Z,42.805,6.029,13.3045,4.60178,2470.637,2023-3-05T13:57:34Z
2023-03-05T11:58:03Z,42.805,6.029,13.3037,4.60170,2470.624,2023-3-05T14:00:37Z
2023-03-05T12:01:06Z,42.805,6.029,13.3039,4.60129,2470.684,2023-3-05T14:03:40Z
2023-03-05T12:04:09Z,42.805,6.029,13.3039,4.60108,2470.646,2023-3-05T14:06:43Z
2023-03-05T12:07:12Z,42.805,6.029,13.3041,4.60138,2470.661,2023-3-05T14:09:46Z
2023-03-05T12:10:15Z,42.805,6.029,13.3046,4.60155,2470.624,2023-3-05T14:12:49Z
2023-03-05T12:13:18Z,42.805,6.029,13.3047,4.60132,2470.637,2023-3-05T14:15:52Z
2023-03-05T12:16:21Z,42.805,6.029,13.3081,4.60125,2470.661,2023-3-05T14:18:55Z
2023-03-05T12:19:24Z,42.805,6.029,13.3085,4.60144,2470.661,2023-3-05T14:21:58Z
2023-03-05T12:22:27Z,42.805,6.029,13.3069,4.60137,2470.637,2023-3-05T14:25:01Z
2023-03-05T12:25:30Z,42.805,6.029,13.3045,4.60114,2470.624,2023-3-05T14:28:04Z
2023-03-05T12:28:33Z,42.805,6.029,13.3045,4.60134,2470.637,2023-3-05T14:31:07Z
2023-03-05T12:31:36Z,42.805,6.029,13.3053,4.60163,2470.6,2023-3-05T14:34:10Z
2023-03-05T12:34:39Z,42.805,6.029,13.3043,4.60148,2470.624,2023-3-05T14:37:14Z
2023-03-05T12:37:43Z,42.805,6.029,13.3058,4.60163,2470.661,2023-3-05T14:40:17Z
2023-03-05T12:40:46Z,42.805,6.029,13.3051,4.60203,2470.614,2023-3-05T14:43:20Z
2023-03-05T12:43:49Z,42.805,6.029,13.3060,4.60225,2470.624,2023-3-05T14:46:23Z
2023-03-05T12:46:52Z,42.805,6.029,13.3070,4.60181,2470.624,2023-3-05T14:49:26Z
2023-03-05T12:49:55Z,42.805,6.029,13.3076,4.60180,2470.614,2023-3-05T14:52:29Z
2023-03-05T12:52:58Z,42.805,6.029,13.3090,4.60129,2470.624,2023-3-05T14:55:32Z
2023-03-05T12:56:01Z,42.805,6.029,13.3096,4.60119,2470.6,2023-3-05T14:58:35Z
2023-03-05T12:59:04Z,42.805,6.029,13.3070,4.60146,2470.6,2023-3-05T15:01:38Z
2023-03-05T13:02:07Z,42.805,6.029,13.3084,4.60155,2470.614,2023-3-05T15:04:41Z
2023-03-05T13:05:10Z,42.805,6.029,13.3077,4.60123,2470.591,2023-3-05T15:07:44Z
2023-03-05T13:08:13Z,42.805,6.029,13.3091,4.60099,2470.661,2023-3-05T15:10:47Z
2023-03-05T13:11:16Z,42.805,6.029,13.3093,4.60109,2470.637,2023-3-05T15:13:51Z
2023-03-05T13:14:20Z,42.805,6.029,13.3043,4.60110,2470.624,2023-3-05T15:16:54Z
2023-03-05T13:17:23Z,42.805,6.029,13.3026,4.60102,2470.637,2023-3-05T15:19:57Z
2023-03-05T13:20:26Z,42.805,6.029,13.3031,4.60116,2470.637,2023-3-05T15:23:00Z
2023-03-05T13:23:29Z,42.805,6.029,13.3024,4.60132,2470.6,2023-3-05T15:26:03Z
2023-03-05T13:26:32Z,42.805,6.029,13.3028,4.60092,2470.6,2023-3-05T15:29:06Z
2023-03-05T13:29:35Z,42.805,6.029,13.3026,4.60097,2470.6,2023-3-05T15:32:09Z
2023-03-05T13:32:38Z,42.805,6.029,13.3022,4.60098,2470.624,2023-3-05T15:35:12Z
2023-03-05T13:35:41Z,42.805,6.029,13.3025,4.60129,2470.6,2023-3-05T15:38:15Z
2023-03-05T13:38:44Z,42.805,6.029,13.3029,4.60099,2470.624,2023-3-05T15:41:18Z
2023-03-05T13:41:47Z,42.805,6.029,13.3032,4.60091,2470.6,2023-3-05T15:44:21Z
2023-03-05T13:44:50Z,42.805,6.029,13.3045,4.60094,2470.6,2023-3-05T15:47:24Z
2023-03-05T13:47:53Z,42.805,6.029,13.3054,4.60084,2470.624,2023-3-05T15:50:27Z
2023-03-05T13:50:56Z,42.805,6.029,13.3051,4.60115,2470.6,2023-3-05T15:53:31Z
2023-03-05T13:54:00Z,42.805,6.029,13.3058,4.60108,2470.614,2023-3-05T15:56:34Z
2023-03-05T13:57:03Z,42.805,6.029,13.3058,4.60097,2470.624,2023-3-05T15:59:37Z
2023-03-05T14:00:06Z,42.805,6.029,13.3069,4.60129,2470.614,2023-3-05T16:02:40Z
2023-03-05T14:03:09Z,42.805,6.029,13.3079,4.60097,2470.6,2023-3-05T16:05:43Z
2023-03-05T14:06:12Z,42.805,6.029,13.3087,4.60099,2470.614,2023-3-05T16:08:46Z
2023-03-05T14:09:15Z,42.805,6.029,13.3077,4.60124,2470.6,2023-3-05T16:11:49Z
2023-03-05T14:12:18Z,42.805,6.029,13.3080,4.60103,2470.624,2023-3-05T16:14:52Z
2023-03-05T14:15:21Z,42.805,6.029,13.3078,4.60132,2470.577,2023-3-05T16:17:55Z
2023-03-05T14:18:24Z,42.805,6.029,13.3132,4.60122,2470.577,2023-3-05T16:20:58Z
2023-03-05T14:21:27Z,42.805,6.029,13.3085,4.60103,2470.614,2023-3-05T16:24:01Z
2023-03-05T14:24:30Z,42.805,6.029,13.3084,4.60094,2470.614,2023-3-05T16:27:04Z
2023-03-05T14:27:33Z,42.805,6.029,13.3084,4.60096,2470.553,2023-3-05T16:30:08Z
2023-03-05T14:30:37Z,42.805,6.029,13.3077,4.60093,2470.6,2023-3-05T16:33:11Z
2023-03-05T14:33:40Z,42.805,6.029,13.3067,4.60103,2470.624,2023-3-05T16:36:14Z
2023-03-05T14:36:43Z,42.805,6.029,13.3067,4.60093,2470.614,2023-3-05T16:39:17Z
2023-03-05T14:39:46Z,42.805,6.029,13.3070,4.60099,2470.614,2023-3-05T16:42:20Z
2023-03-05T14:42:49Z,42.805,6.029,13.3070,4.60105,2470.6,2023-3-05T16:45:23Z
2023-03-05T14:45:52Z,42.805,6.029,13.3061,4.60090,2470.614,2023-3-05T16:48:26Z
2023-03-05T14:48:55Z,42.805,6.029,13.3056,4.60110,2470.661,2023-3-05T16:51:29Z
2023-03-05T14:51:58Z,42.805,6.029,13.3055,4.60097,2470.661,2023-3-05T16:54:32Z
2023-03-05T14:55:01Z,42.805,6.029,13.3051,4.60102,2470.624,2023-3-05T16:57:35Z
2023-03-05T14:58:04Z,42.805,6.029,13.3067,4.60099,2470.6,2023-3-05T17:00:38Z
2023-03-05T15:01:07Z,42.805,6.029,13.3064,4.60112,2470.6,2023-3-05T17:03:41Z
2023-03-05T15:04:10Z,42.805,6.029,13.3067,4.60107,2470.6,2023-3-05T17:06:44Z
2023-03-05T15:07:13Z,42.805,6.029,13.3065,4.60173,2470.624,2023-3-05T17:09:48Z
2023-03-05T15:10:17Z,42.805,6.029,13.3072,4.60141,2470.6,2023-3-05T17:12:51Z
2023-03-05T15:13:20Z,42.805,6.029,13.3098,4.60110,2470.614,2023-3-05T17:15:54Z